Simultaneous Nadir Overpasses (SNOs) Predictions

Prediction of SNOs between FY3D and AQUA Satellite Orbit:

Table of predicted SNOs for the next 14.0 days since TLE Epoch: 3/6/2021
Index Date (FY3D) Time (FY3D) Lat,Lon (FY3D) SZA (FY3D ) Date (AQUA) Time (AQUA) Lat,Lon (AQUA) SZA (AQUA ) Distance(km) Time Diff (sec)
1 03/08/2021 04:45:04 -46.11, -56.69 128.17 03/08/2021 04:46:11 -46.21, -56.26 127.94 35.18 67
2 03/08/2021 06:00:16 46.04, -57.14 131.25 03/08/2021 05:59:28 46.11, -57.39 131.41 20.89 48
3 03/10/2021 21:02:29 -49.82, 57.68 125.79 03/10/2021 21:03:42 -49.89, 58.16 125.60 35.66 73
4 03/10/2021 22:16:37 46.00, 58.78 130.27 03/10/2021 22:15:58 46.04, 58.47 130.46 24.51 39
5 03/13/2021 13:24:00 -67.24, 161.32 110.19 03/13/2021 13:25:13 -67.40, 162.42 110.02 50.70 73
6 03/13/2021 14:32:57 46.02, 174.72 129.23 03/13/2021 14:32:26 46.08, 174.36 129.41 28.19 31
7 03/16/2021 05:57:42 -49.15, 124.62 54.65 03/16/2021 05:58:36 -49.31, 123.86 54.54 58.02 54
8 03/16/2021 06:49:17 46.04, -69.34 128.18 03/16/2021 06:48:54 46.10, -69.75 128.36 31.89 23
9 03/16/2021 07:16:38 -49.78, -95.81 127.87 03/16/2021 07:15:33 -49.94, -94.82 127.60 73.65 65
10 03/18/2021 22:13:54 -49.56,-119.26 56.08 03/18/2021 22:14:56 -49.74,-120.08 55.98 61.70 62
11 03/18/2021 23:05:36 46.05, 46.59 127.13 03/18/2021 23:05:21 46.12, 46.14 127.31 35.56 15



Historial Predications of SNOs between FY3D and AQUA
